GW0656 Weather Reports


time (UTC)temp
C
wind
direction
speed
KPH
gust
KPH
rain 1hr
cm
rain 24hr
cm
rain mn
cm
humidity
%
barometer
mb
20260905224546 33 19 0.0 4.8 0.00 0.00 0.00 59 1010.9
20260905224024 33 19 0.0 6.4 0.00 0.00 0.00 61 1010.9
20260905223527 33 19 1.6 8.0 0.00 0.00 0.00 58 1010.9
20260905223044 33 340 3.2 8.0 0.00 0.00 0.00 58 1010.9
20260905222525 33 334 3.2 12.9 0.00 0.00 0.00 59 1010.9
20260905222020 33 360 3.2 12.9 0.00 0.00 0.00 57 1010.9
20260905221551 33 313 4.8 12.9 0.00 0.00 0.00 55 1011.0
20260905221024 33 0 1.6 9.7 0.00 0.00 0.00 58 1011.0
20260905220520 33 340 3.2 9.7 0.00 0.00 0.00 58 1010.8
20260905220047 33 323 3.2 6.4 0.00 0.00 0.00 57 1010.9
20260905215524 33 280 3.2 16.1 0.00 0.00 0.00 55 1011.0
20260905215023 34 292 1.6 16.1 0.00 0.00 0.00 55 1011.1
20260905214544 34 323 8.0 16.1 0.00 0.00 0.00 54 1011.2
20260905214024 34 298 1.6 6.4 0.00 0.00 0.00 55 1011.1
20260905213519 35 267 3.2 11.3 0.00 0.00 0.00 53 1011.0
20260905213055 35 297 4.8 14.5 0.00 0.00 0.00 53 1011.1
20260905212519 35 307 6.4 14.5 0.00 0.00 0.00 54 1011.1
20260905212019 34 0 1.6 6.4 0.00 0.00 0.00 55 1011.0
20260905211545 34 11 1.6 8.0 0.00 0.00 0.00 54 1011.1
20260905211024 34 327 1.6 12.9 0.00 0.00 0.00 55 1011.1
20260905210525 35 338 6.4 12.9 0.00 0.00 0.00 53 1011.1
20260905210041 35 275 3.2 16.1 0.00 0.00 0.00 55 1011.2
20260905205527 35 18 9.7 16.1 0.00 0.00 0.00 53 1011.2
20260905205024 35 331 4.8 16.1 0.00 0.00 0.00 53 1011.2
20260905204546 35 344 1.6 8.0 0.00 0.00 0.00 54 1011.3
20260905204020 35 287 3.2 8.0 0.00 0.00 0.00 54 1011.3
20260905203520 35 74 4.8 12.9 0.00 0.00 0.00 54 1011.5
20260905203052 35 0 1.6 12.9 0.00 0.00 0.00 53 1011.5
20260905202528 35 292 1.6 12.9 0.00 0.00 0.00 56 1011.5
20260905202024 35 321 4.8 12.9 0.00 0.00 0.00 54 1011.7
20260905201555 35 340 4.8 11.3 0.00 0.00 0.00 56 1011.7
20260905201024 34 222 0.0 12.9 0.00 0.00 0.00 56 1011.8
20260905200523 34 0 1.6 12.9 0.00 0.00 0.00 54 1011.8
20260905200044 34 296 4.8 12.9 0.00 0.00 0.00 55 1011.9
20260905195526 34 279 6.4 12.9 0.00 0.00 0.00 54 1011.9
20260905195026 34 221 3.2 11.3 0.00 0.00 0.00 57 1012.0
20260905194545 34 145 3.2 11.3 0.00 0.00 0.00 55 1012.1
20260905194024 34 302 3.2 17.7 0.00 0.00 0.00 58 1012.3
20260905193524 34 273 9.7 17.7 0.00 0.00 0.00 55 1012.3
20260905193042 34 188 4.8 12.9 0.00 0.00 0.00 59 1012.3
20260905192524 33 313 1.6 14.5 0.00 0.00 0.00 56 1012.3
20260905192024 34 350 8.0 14.5 0.00 0.00 0.00 55 1012.3
20260905191541 34 278 1.6 14.5 0.00 0.00 0.00 58 1012.3
20260905191021 34 275 3.2 14.5 0.00 0.00 0.00 57 1012.4
20260905190523 33 276 1.6 8.0 0.00 0.00 0.00 56 1012.5
20260905190045 33 163 1.6 8.0 0.00 0.00 0.00 58 1012.7
20260905185526 33 285 4.8 9.7 0.00 0.00 0.00 58 1012.7
20260905185025 33 279 4.8 9.7 0.00 0.00 0.00 57 1012.8
20260905184549 33 139 3.2 8.0 0.00 0.00 0.00 57 1012.9
20260905184024 33 178 1.6 9.7 0.00 0.00 0.00 58 1013.0
20260905183524 33 177 3.2 9.7 0.00 0.00 0.00 58 1013.0
20260905183101 33 288 1.6 6.4 0.00 0.00 0.00 58 1013.0
20260905182525 33 0 3.2 8.0 0.00 0.00 0.00 59 1013.0
20260905182029 32 179 3.2 8.0 0.00 0.00 0.00 57 1013.1
20260905181544 32 192 3.2 9.7 0.00 0.00 0.00 59 1013.2
20260905181023 32 97 3.2 11.3 0.00 0.00 0.00 60 1013.3
20260905180526 32 200 4.8 11.3 0.00 0.00 0.00 61 1013.5
20260905180050 32 126 4.8 11.3 0.00 0.00 0.00 61 1013.5
20260905175530 32 0 3.2 11.3 0.00 0.00 0.00 61 1013.5
20260905175024 32 249 4.8 9.7 0.00 0.00 0.00 62 1013.6
20260905174543 31 157 1.6 8.0 0.00 0.00 0.00 65 1013.7
20260905174024 31 87 3.2 8.0 0.00 0.00 0.00 60 1013.8
20260905173524 31 350 3.2 8.0 0.00 0.00 0.00 62 1013.8
20260905173043 31 302 3.2 12.9 0.00 0.00 0.00 63 1013.9
20260905172524 31 72 6.4 14.5 0.00 0.00 0.00 62 1014.0
20260905172025 31 100 8.0 14.5 0.00 0.00 0.00 62 1013.9
20260905171543 31 9 1.6 11.3 0.00 0.00 0.00 62 1014.0
20260905171023 31 38 3.2 11.3 0.00 0.00 0.00 62 1014.1
20260905170524 31 75 3.2 11.3 0.00 0.00 0.00 66 1014.1
20260905170058 31 0 1.6 9.7 0.00 0.00 0.00 66 1014.2
20260905165523 31 5 1.6 9.7 0.00 0.00 0.00 66 1014.3
20260905165024 30 268 3.2 14.5 0.00 0.00 0.00 66 1014.3
20260905164544 30 0 1.6 14.5 0.00 0.00 0.00 66 1014.4
20260905164023 30 55 1.6 14.5 0.00 0.00 0.00 68 1014.5
20260905163528 30 44 4.8 14.5 0.00 0.00 0.00 67 1014.5
20260905163042 30 49 6.4 14.5 0.00 0.00 0.00 66 1014.6
20260905162526 30 74 6.4 16.1 0.00 0.00 0.00 67 1014.7
20260905162023 30 84 3.2 16.1 0.00 0.00 0.00 66 1014.6
20260905161547 30 138 9.7 16.1 0.00 0.00 0.00 68 1014.5
20260905161028 29 133 1.6 12.9 0.00 0.00 0.00 69 1014.5
20260905160530 29 134 6.4 12.9 0.00 0.00 0.00 70 1014.5
20260905160107 29 0 1.6 12.9 0.00 0.00 0.00 70 1014.6
20260905155528 28 71 6.4 12.9 0.00 0.00 0.00 71 1014.7
20260905155022 28 69 8.0 12.9 0.00 0.00 0.00 70 1014.7
20260905154551 28 46 4.8 11.3 0.00 0.00 0.00 72 1014.7
20260905154022 28 63 1.6 12.9 0.00 0.00 0.00 75 1014.9
20260905153524 28 32 4.8 14.5 0.00 0.00 0.00 75 1014.9
20260905153041 27 360 6.4 14.5 0.00 0.00 0.00 74 1014.9
20260905152525 27 48 4.8 16.1 0.00 0.00 0.00 75 1015.0
20260905152024 27 28 8.0 16.1 0.00 0.00 0.00 75 1015.0
20260905151550 27 34 6.4 16.1 0.00 0.00 0.00 76 1015.1
20260905151025 27 75 8.0 17.7 0.00 0.00 0.00 77 1015.1
20260905150525 26 44 6.4 17.7 0.00 0.00 0.00 76 1015.1
20260905150051 26 69 8.0 19.3 0.00 0.00 0.00 76 1015.0
20260905145523 26 94 11.3 25.7 0.00 0.00 0.00 76 1015.0
20260905145024 27 79 14.5 25.7 0.00 0.00 0.00 75 1015.1
20260905144543 27 63 12.9 24.1 0.00 0.00 0.00 75 1015.0
20260905144021 27 71 9.7 24.1 0.00 0.00 0.00 76 1015.0
20260905143524 27 24 9.7 27.4 0.00 0.00 0.00 76 1015.0
20260905143042 27 103 12.9 27.4 0.00 0.00 0.00 77 1014.8
20260905142524 27 83 14.5 27.4 0.00 0.00 0.00 75 1015.0
20260905142025 27 44 12.9 24.1 0.00 0.00 0.00 75 1015.3
20260905141546 27 67 14.5 22.5 0.00 0.00 0.00 75 1015.0
20260905141027 27 65 14.5 30.6 0.00 0.00 0.00 75 1015.2
20260905140525 27 26 12.9 30.6 0.00 0.00 0.00 76 1015.1
20260905140049 27 48 9.7 19.3 0.00 0.00 0.00 78 1015.1
20260905135526 27 69 9.7 17.7 0.00 0.00 0.00 79 1015.0
20260905135025 27 48 4.8 11.3 0.00 0.00 0.00 80 1015.2
20260905134548 27 63 4.8 9.7 0.00 0.00 0.00 79 1015.0
20260905134024 27 76 4.8 8.0 0.00 0.00 0.00 81 1014.8
20260905133525 27 121 3.2 12.9 0.00 0.00 0.00 82 1014.8
20260905133047 26 67 4.8 12.9 0.00 0.00 0.00 83 1014.9
20260905132525 26 80 3.2 8.0 0.00 0.00 0.00 84 1015.0
20260905132027 26 80 1.6 8.0 0.00 0.00 0.00 85 1014.9
20260905131545 26 42 3.2 6.4 0.00 0.00 0.00 86 1015.0
20260905131026 25 48 1.6 14.5 0.00 0.00 0.00 86 1014.9
20260905130524 25 44 3.2 17.7 0.00 0.00 0.00 86 1015.0
20260905130044 25 57 8.0 17.7 0.00 0.00 0.00 87 1015.0
20260905125526 25 52 4.8 9.7 0.00 0.00 0.00 89 1015.1
20260905125025 25 39 1.6 12.9 0.00 0.00 0.00 90 1014.9
20260905124540 24 21 6.4 17.7 0.00 0.00 0.00 92 1014.8
20260905124024 23 49 8.0 17.7 0.00 0.00 0.00 94 1014.9
20260905123523 23 82 0.0 3.2 0.00 0.00 0.00 95 1014.8
20260905123045 23 0 0.0 3.2 0.00 0.00 0.00 95 1014.6
20260905122525 23 0 0.0 3.2 0.00 0.00 0.00 95 1014.6
20260905122028 23 0 0.0 3.2 0.00 0.00 0.00 95 1014.7
20260905121545 22 0 0.0 0.0 0.00 0.00 0.00 94 1014.5
20260905121030 22 0 0.0 0.0 0.00 0.00 0.00 94 1014.4
20260905120526 22 0 0.0 0.0 0.00 0.00 0.00 94 1014.4
20260905120042 22 0 0.0 3.2 0.00 0.00 0.00 93 1014.4
20260905115528 22 0 0.0 3.2 0.00 0.00 0.00 93 1014.3
20260905115025 22 0 0.0 0.0 0.00 0.00 0.00 93 1014.3
20260905114547 22 0 0.0 3.2 0.00 0.00 0.00 93 1014.3
20260905114025 22 0 0.0 3.2 0.00 0.00 0.00 93 1014.3
20260905113525 22 0 0.0 3.2 0.00 0.00 0.00 93 1014.3
20260905113043 22 82 0.0 3.2 0.00 0.00 0.00 93 1014.1
20260905112525 22 0 0.0 1.6 0.00 0.00 0.00 93 1014.0
20260905112023 22 82 0.0 1.6 0.00 0.00 0.00 93 1013.9
20260905111542 22 0 0.0 0.0 0.00 0.00 0.00 93 1013.8
20260905111023 22 0 0.0 1.6 0.00 0.00 0.00 93 1013.8
20260905110524 22 0 0.0 1.6 0.00 0.00 0.00 93 1013.6
20260905110048 22 0 0.0 1.6 0.00 0.00 0.00 93 1013.6
20260905105525 22 82 0.0 1.6 0.00 0.00 0.00 92 1013.4
20260905105025 22 0 0.0 1.6 0.00 0.00 0.00 92 1013.3
20260905104601 22 82 0.0 1.6 0.00 0.00 0.00 92 1013.3
20260905104023 22 0 0.0 0.0 0.00 0.00 0.00 92 1013.3
20260905103525 22 0 0.0 0.0 0.00 0.00 0.00 93 1013.2
20260905103042 22 0 0.0 1.6 0.00 0.00 0.00 93 1013.5
20260905102524 22 0 0.0 3.2 0.00 0.00 0.00 92 1013.3
20260905102024 22 0 0.0 3.2 0.00 0.00 0.00 92 1013.4
20260905101541 23 82 0.0 3.2 0.00 0.00 0.00 92 1013.4
20260905101023 23 0 0.0 1.6 0.00 0.00 0.00 92 1013.3
20260905100526 23 82 0.0 1.6 0.00 0.00 0.00 92 1013.3
20260905100046 23 0 0.0 1.6 0.00 0.00 0.00 92 1013.2
20260905095527 23 0 0.0 1.6 0.00 0.00 0.00 92 1013.3
20260905095028 23 0 0.0 1.6 0.00 0.00 0.00 92 1013.1
20260905094539 23 0 0.0 1.6 0.00 0.00 0.00 92 1013.1
20260905094058 23 0 0.0 1.6 0.00 0.00 0.00 91 1013.1
20260905093525 23 0 0.0 0.0 0.00 0.00 0.00 91 1013.1
20260905093042 23 0 0.0 1.6 0.00 0.00 0.00 91 1013.0
20260905092524 23 0 0.0 1.6 0.00 0.00 0.00 91 1013.0
20260905092029 23 0 0.0 1.6 0.00 0.00 0.00 92 1012.9
20260905091542 23 82 0.0 1.6 0.00 0.00 0.00 92 1012.9
20260905091025 23 0 0.0 3.2 0.00 0.00 0.00 92 1012.9
20260905090524 23 0 0.0 3.2 0.00 0.00 0.00 92 1012.8
20260905090111 23 0 0.0 1.6 0.00 0.00 0.00 92 1012.8
20260905085524 23 0 0.0 1.6 0.00 0.00 0.00 92 1012.8
20260905085024 23 0 0.0 1.6 0.00 0.00 0.00 92 1012.9
20260905084543 23 0 0.0 1.6 0.00 0.00 0.00 92 1012.9
20260905084025 23 0 0.0 0.0 0.00 0.00 0.00 92 1012.9
20260905083525 23 0 0.0 0.0 0.00 0.00 0.00 92 1012.9
20260905083041 23 0 0.0 0.0 0.00 0.00 0.00 92 1013.0
20260905082528 23 0 0.0 3.2 0.00 0.00 0.00 92 1012.9
20260905082021 23 0 0.0 3.2 0.00 0.00 0.00 92 1012.8
20260905081547 23 0 0.0 0.0 0.00 0.00 0.00 92 1012.8
20260905081027 23 0 0.0 0.0 0.00 0.00 0.00 92 1012.9
20260905080524 23 0 0.0 0.0 0.00 0.00 0.00 92 1012.8
20260905080041 23 0 0.0 0.0 0.00 0.00 0.00 92 1012.9
20260905075525 23 0 0.0 0.0 0.00 0.00 0.00 92 1013.0
20260905075023 23 0 0.0 3.2 0.00 0.00 0.00 92 1013.0
20260905074544 23 0 0.0 3.2 0.00 0.00 0.00 92 1013.1
20260905074025 23 82 0.0 4.8 0.00 0.00 0.00 92 1013.0
20260905073528 23 0 0.0 4.8 0.00 0.00 0.00 92 1013.1
20260905073047 23 82 1.6 4.8 0.00 0.00 0.00 92 1013.1
20260905072524 23 0 0.0 4.8 0.00 0.00 0.00 92 1013.1
20260905072026 23 82 1.6 4.8 0.00 0.00 0.00 92 1013.2
20260905071543 23 0 0.0 1.6 0.00 0.00 0.00 92 1013.3
20260905071024 23 0 0.0 1.6 0.00 0.00 0.00 91 1013.3
20260905070523 23 0 0.0 0.0 0.00 0.00 0.00 91 1013.3
20260905070047 23 0 0.0 0.0 0.00 0.00 0.00 91 1013.3
20260905065523 23 0 0.0 0.0 0.00 0.00 0.00 91 1013.4
20260905065023 23 0 0.0 0.0 0.00 0.00 0.00 91 1013.4
20260905064542 23 0 0.0 0.0 0.00 0.00 0.00 91 1013.4
20260905064025 23 0 0.0 0.0 0.00 0.00 0.00 91 1013.4
20260905063524 23 0 0.0 0.0 0.00 0.00 0.00 91 1013.5
20260905063042 23 0 0.0 0.0 0.00 0.00 0.00 91 1013.5
20260905062525 23 0 0.0 0.0 0.00 0.00 0.00 91 1013.6
20260905062024 23 0 0.0 0.0 0.00 0.00 0.00 91 1013.6
20260905061545 23 0 0.0 0.0 0.00 0.00 0.00 91 1013.7
20260905061023 24 0 0.0 1.6 0.00 0.00 0.00 91 1013.8
20260905060524 24 0 0.0 1.6 0.00 0.00 0.00 91 1013.8
20260905060043 24 0 0.0 1.6 0.00 0.00 0.00 91 1013.8
20260905055526 24 82 0.0 3.2 0.00 0.00 0.00 91 1013.9
20260905055020 24 0 0.0 3.2 0.00 0.00 0.00 91 1013.8
20260905054541 24 0 0.0 0.0 0.00 0.00 0.00 92 1014.0
20260905054023 24 0 0.0 0.0 0.00 0.00 0.00 92 1013.9
20260905053523 24 0 0.0 1.6 0.00 0.00 0.00 92 1014.0
20260905053044 24 0 0.0 1.6 0.00 0.00 0.00 92 1014.0
20260905052526 24 0 0.0 1.6 0.00 0.00 0.00 91 1014.0
20260905052027 24 82 0.0 3.2 0.00 0.00 0.00 91 1014.0
20260905051544 24 0 0.0 3.2 0.00 0.00 0.00 91 1014.0
20260905051024 24 0 0.0 3.2 0.00 0.00 0.00 91 1014.0
20260905050524 24 0 0.0 3.2 0.00 0.00 0.00 91 1014.0
20260905050042 24 0 0.0 3.2 0.00 0.00 0.00 92 1014.0
20260905045532 24 82 0.0 3.2 0.00 0.00 0.00 92 1014.1
20260905045021 24 0 0.0 0.0 0.00 0.00 0.00 91 1014.0
20260905044549 24 0 0.0 0.0 0.00 0.00 0.00 91 1014.0
20260905044022 24 0 0.0 0.0 0.00 0.00 0.00 91 1014.0
20260905043524 24 0 0.0 0.0 0.00 0.00 0.00 91 1014.0
20260905043044 24 0 0.0 0.0 0.00 0.00 0.00 91 1014.0
20260905042529 24 0 0.0 0.0 0.00 0.00 0.00 90 1013.9
20260905042025 25 0 0.0 3.2 0.00 0.00 0.00 90 1014.0
20260905041550 25 0 0.0 3.2 0.00 0.00 0.00 90 1014.0
20260905041023 25 82 0.0 3.2 0.00 0.00 0.00 90 1014.0
20260905040524 25 0 0.0 1.6 0.00 0.00 0.00 90 1014.0
20260905040050 25 0 0.0 0.0 0.00 0.00 0.00 90 1013.9
20260905035520 25 0 0.0 1.6 0.00 0.00 0.00 90 1014.1
20260905035023 25 0 0.0 1.6 0.00 0.00 0.00 90 1014.2
20260905034548 25 0 0.0 1.6 0.00 0.00 0.00 90 1014.2
20260905034025 25 0 0.0 1.6 0.00 0.00 0.00 90 1014.2
20260905033526 25 0 0.0 1.6 0.00 0.00 0.00 90 1014.2
20260905033047 25 0 0.0 3.2 0.00 0.00 0.00 90 1014.3
20260905032527 25 0 0.0 3.2 0.00 0.00 0.00 90 1014.3
20260905032028 25 82 1.6 3.2 0.00 0.00 0.00 90 1014.3
20260905031548 25 82 1.6 3.2 0.00 0.00 0.00 90 1014.2
20260905031024 25 0 0.0 3.2 0.00 0.00 0.00 89 1014.1
20260905030524 25 82 1.6 3.2 0.00 0.00 0.00 89 1014.1
20260905030046 25 82 0.0 3.2 0.00 0.00 0.00 89 1014.2
20260905025524 25 0 0.0 3.2 0.00 0.00 0.00 89 1014.3
20260905025026 25 0 0.0 3.2 0.00 0.00 0.00 88 1014.3
20260905024542 26 0 0.0 3.2 0.00 0.00 0.00 88 1014.2
20260905024025 26 0 0.0 1.6 0.00 0.00 0.00 88 1014.1
20260905023524 26 0 0.0 0.0 0.00 0.00 0.00 87 1014.1
20260905023045 26 0 0.0 0.0 0.00 0.00 0.00 86 1014.0
20260905022523 26 0 0.0 0.0 0.00 0.00 0.00 87 1014.0
20260905022024 26 0 0.0 0.0 0.00 0.00 0.00 87 1014.1
20260905021538 26 0 0.0 0.0 0.00 0.00 0.00 86 1014.0
20260905021025 26 0 0.0 0.0 0.00 0.00 0.00 86 1014.0
20260905020521 26 0 0.0 1.6 0.00 0.00 0.00 86 1014.0
20260905020040 26 0 0.0 3.2 0.00 0.00 0.00 86 1013.9
20260905015528 26 82 0.0 3.2 0.00 0.00 0.00 86 1014.0
20260905015024 26 82 0.0 3.2 0.00 0.00 0.00 85 1013.9
20260905014544 27 0 1.6 3.2 0.00 0.00 0.00 85 1013.9
20260905014024 27 82 0.0 3.2 0.00 0.00 0.00 83 1013.7
20260905013526 27 0 0.0 1.6 0.00 0.00 0.00 82 1013.7
20260905013107 27 0 0.0 1.6 0.00 0.00 0.00 82 1013.7
20260905012521 27 0 0.0 1.6 0.00 0.00 0.00 82 1013.8
20260905012024 27 0 0.0 0.0 0.00 0.00 0.00 82 1013.5
20260905011540 27 0 0.0 0.0 0.00 0.00 0.00 81 1013.5
20260905011024 28 0 0.0 0.0 0.00 0.00 0.00 80 1013.4
20260905010524 28 0 0.0 0.0 0.00 0.00 0.00 78 1013.4
20260905010043 28 0 0.0 1.6 0.00 0.00 0.00 77 1013.4
20260905005525 28 0 0.0 1.6 0.00 0.00 0.00 78 1013.4
20260905005024 29 82 0.0 1.6 0.00 0.00 0.00 77 1013.3
20260905004606 30 0 0.0 0.0 0.00 0.00 0.00 74 1013.3
20260905004023 30 0 0.0 0.0 0.00 0.00 0.00 75 1013.2
20260905003526 30 0 0.0 0.0 0.00 0.00 0.00 74 1013.3
20260905003047 30 0 0.0 0.0 0.00 0.00 0.00 72 1013.3
20260905002524 30 0 0.0 1.6 0.00 0.00 0.00 72 1013.3
20260905002026 31 0 0.0 1.6 0.00 0.00 0.00 70 1013.4
20260905001554 31 0 0.0 1.6 0.00 0.00 0.00 69 1013.4
20260905001022 31 0 0.0 1.6 0.00 0.00 0.00 68 1013.4
20260905000523 31 0 0.0 0.0 0.00 0.00 0.00 67 1013.4
20260905000048 32 0 0.0 0.0 0.00 0.00 0.00 66 1013.4
20260904235524 32 0 0.0 0.0 0.00 0.00 0.00 65 1013.4
20260904235023 32 0 0.0 0.0 0.00 0.00 0.00 65 1013.4
20260904234542 32 0 0.0 1.6 0.00 0.00 0.00 64 1013.5
20260904234023 32 0 0.0 1.6 0.00 0.00 0.00 64 1013.5
20260904233520 33 0 0.0 1.6 0.00 0.00 0.00 63 1013.5
20260904233038 33 0 0.0 4.8 0.00 0.00 0.00 64 1013.5
20260904232521 33 0 0.0 4.8 0.00 0.00 0.00 63 1013.4
20260904232027 33 82 1.6 4.8 0.00 0.00 0.00 58 1013.4
20260904231546 34 41 1.6 4.8 0.00 0.00 0.00 59 1013.4
20260904231024 35 0 0.0 0.0 0.00 0.00 0.00 60 1013.4
20260904230525 35 0 0.0 0.0 0.00 0.00 0.00 60 1013.4
20260904230043 35 0 0.0 3.2 0.00 0.00 0.00 56 1013.4
20260904225525 35 0 0.0 3.2 0.00 0.00 0.00 52 1013.4
20260904225024 35 0 0.0 8.0 0.00 0.00 0.00 52 1013.4